Wetterstats.de || Aktuelle Messwerte || Aktuelle Wetterkarten NEU! || Radar / Satellit NEU! || Wetterarchiv || Langzeitwerte NEU! || Klim. Kenntage || Met. Ereignisse || Agrarwerte || Echtzeitwerte

Monatsübersicht für Januar 2020 Diagramm
 
Wetter Information zur Wetteranzeige
Zeitraffer
Tageslänge (hh:mm)
Höchsttemperatur in °C
Uhrzeit
Tiefsttemperatur in °C
Uhrzeit
Luftfeuchte (max., in %)
Uhrzeit
Luftfeuchte (min., in %)
Uhrzeit
Luftdruck (max., in hPa)
Uhrzeit
Luftdruck (min., in hPa)
Uhrzeit
Luftdruck (Ø, in hPa)
Regenrate (max, mm/h)
Uhrzeit
Niederschlag in mm
Verdunstung in mm
Solar in W/m² (Ø)
Solar in W/m² (max.)
UV-Index (max.)
Sonnenscheindauer (hh:mm)
Windrichtung (Ø)
Windstärke (Ø in km/h)
Windstärke (Ø in bft)
Windböe (max., in km/h)
Uhrzeit
Windböe (max., in bft)
Uhrzeit
Taupunkt (max., in °C)
Uhrzeit
Taupunkt (min., in °C)
Uhrzeit
Windchill (min., in °C)
Uhrzeit
Gewitterindex (max.)
Uhrzeit
Waldbrandindex (max.)
Uhrzeit
Graslandfeuerindex (max.)
Uhrzeit
Staubsturm-Index (max.)
Uhrzeit
01
Zeitraffer
07:50
4.8
13:40 Uhr
-3.4
23:55 Uhr

96
07:00 Uhr
80
13:45 Uhr
1034.2
10:30 Uhr

1029.9
22:35 Uhr
1032.4
0,000
00:00 Uhr
0,000
0.330
85
276
13:25 Uhr
0.5
13:40 Uhr

02:32:00
3,8
1
24,1
12:05 Uhr

4
1.8
11:25 Uhr
-4.2
23:50 Uhr
-3.6
12:45 Uhr
0
00:00 Uhr
0.0
00:00 Uhr
0.0
00:00 Uhr
0.0
00:00 Uhr
02
Zeitraffer
07:51
6.9
14:45 Uhr
-5.3
04:20 Uhr

96
05:30 Uhr
59
14:45 Uhr
1030.0
00:00 Uhr

1023.1
23:35 Uhr
1026.3
0,000
00:00 Uhr
0,000
0.457
161
297
12:30 Uhr
0.6
12:10 Uhr

06:13:00
1,3
0
17,7
22:25 Uhr

3
1.0
13:00 Uhr
-6.2
04:15 Uhr
-5.3
04:20 Uhr
0
00:00 Uhr
0.0
00:00 Uhr
0.0
00:00 Uhr
0.0
00:00 Uhr
03
Zeitraffer
07:52
6.9
22:25 Uhr
1.3
00:00 Uhr

95
17:10 Uhr
82
14:10 Uhr
1023.1
00:05 Uhr

1013.0
19:45 Uhr
1016.8
4,800
18:40 Uhr
5,400
0.152
31
145
12:40 Uhr
0.5
12:40 Uhr

00:22:00
8,1
2
40,2
23:05 Uhr

5
6.1
21:10 Uhr
-0.5
00:00 Uhr
-4.5
23:10 Uhr
0
00:00 Uhr
0.0
00:00 Uhr
0.0
00:00 Uhr
0.0
00:00 Uhr
04
Zeitraffer
07:53
5.4
13:20 Uhr
2.0
23:55 Uhr

94
03:00 Uhr
81
19:10 Uhr
1026.1
23:55 Uhr

1013.8
13:20 Uhr
1018.7
4,800
13:30 Uhr
2,200
0.406
24
69
14:10 Uhr
0.0
00:00 Uhr

00:10:00
12,5
2
46,7
14:00 Uhr

6
4.0
13:15 Uhr
-0.4
23:55 Uhr
-4.8
15:25 Uhr
0
00:00 Uhr
0.0
00:00 Uhr
0.0
00:00 Uhr
0.0
00:00 Uhr
05
Zeitraffer
07:54
3.3
23:35 Uhr
-1.7
08:10 Uhr

95
08:35 Uhr
83
14:45 Uhr
1034.0
09:50 Uhr

1026.2
00:00 Uhr
1031.7
0,000
00:00 Uhr
0,000
0.305
106
267
11:40 Uhr
0.6
11:25 Uhr

03:40:00
4,2
1
20,9
03:05 Uhr

4
1.7
23:45 Uhr
-2.5
08:10 Uhr
-4.6
02:45 Uhr
0
00:00 Uhr
0.0
00:00 Uhr
0.0
00:00 Uhr
0.0
00:00 Uhr
06
Zeitraffer
07:57
5.9
15:10 Uhr
3.2
00:20 Uhr

90
00:30 Uhr
82
05:55 Uhr
1030.9
00:05 Uhr

1021.2
23:55 Uhr
1026.5
0,000
00:00 Uhr
0,000
0.330
56
173
10:50 Uhr
0.0
00:00 Uhr

00:18:00
4,2
1
17,7
05:40 Uhr

3
3.7
14:45 Uhr
1.3
23:55 Uhr
1.7
10:50 Uhr
0
00:00 Uhr
0.0
00:00 Uhr
0.0
00:00 Uhr
0.0
00:00 Uhr
07
Zeitraffer
07:58
5.2
20:40 Uhr
-2.8
08:20 Uhr

96
09:30 Uhr
84
00:00 Uhr
1027.0
17:45 Uhr

1020.3
02:30 Uhr
1023.8
0,000
00:00 Uhr
0,000
0.102
28
52
11:50 Uhr
0.0
00:00 Uhr

00:11:00
2,7
1
20,9
23:25 Uhr

4
4.2
18:30 Uhr
-3.7
08:40 Uhr
-2.8
08:20 Uhr
0
00:00 Uhr
0.0
00:00 Uhr
0.0
00:00 Uhr
0.0
00:00 Uhr
08
Zeitraffer
08:00
9.1
22:40 Uhr
3.8
01:00 Uhr

94
14:35 Uhr
84
08:05 Uhr
1025.4
00:00 Uhr

1020.5
12:55 Uhr
1022.1
0,000
00:00 Uhr
0,000
0.305
23
54
10:40 Uhr
0.0
00:00 Uhr

00:00:00
7,6
2
29,0
09:35 Uhr

4
7.7
23:30 Uhr
2.3
03:45 Uhr
-3.4
03:55 Uhr
0
00:00 Uhr
0.0
00:00 Uhr
0.0
00:00 Uhr
0.0
00:00 Uhr
09
Zeitraffer
08:02
10.0
22:20 Uhr
7.6
05:55 Uhr

96
04:15 Uhr
91
00:00 Uhr
1023.0
00:00 Uhr

1011.0
22:45 Uhr
1016.4
2,400
02:15 Uhr
2,400
0.127
34
74
11:40 Uhr
0.0
00:00 Uhr

00:00:00
6,3
1
33,8
12:20 Uhr

5
9.4
22:20 Uhr
7.0
05:55 Uhr
2.6
12:20 Uhr
2
19:35 Uhr
0.0
00:00 Uhr
0.0
00:00 Uhr
0.0
00:00 Uhr
10
Zeitraffer
08:04
11.1
14:05 Uhr
5.2
23:45 Uhr

96
00:00 Uhr
76
14:20 Uhr
1022.4
23:50 Uhr

1010.2
04:40 Uhr
1013.6
2,400
02:35 Uhr
5,400
0.610
97
276
13:00 Uhr
0.6
12:15 Uhr

02:49:00
8,8
2
41,8
18:15 Uhr

6
9.7
04:00 Uhr
3.7
23:45 Uhr
-1.4
22:30 Uhr
2
00:00 Uhr
0.0
00:00 Uhr
0.0
00:00 Uhr
0.0
00:00 Uhr
11
Zeitraffer
08:06
6.4
13:30 Uhr
3.2
23:55 Uhr

95
04:35 Uhr
77
13:50 Uhr
1031.3
11:30 Uhr

1022.6
00:00 Uhr
1028.1
0,000
00:00 Uhr
0,000
0.483
102
343
11:55 Uhr
0.7
11:55 Uhr

02:11:00
7,2
2
30,6
00:25 Uhr

5
3.7
00:00 Uhr
0.5
23:55 Uhr
-2.0
22:00 Uhr
0
00:00 Uhr
0.0
00:00 Uhr
0.0
00:00 Uhr
0.0
00:00 Uhr
12
Zeitraffer
08:08
6.4
23:00 Uhr
1.9
03:55 Uhr

85
02:55 Uhr
73
14:10 Uhr
1025.8
00:00 Uhr

1017.0
17:30 Uhr
1020.4
0,000
00:00 Uhr
0,000
0.914
133
308
13:35 Uhr
0.7
11:35 Uhr

05:07:00
9,7
2
35,4
20:35 Uhr

5
3.7
23:55 Uhr
-0.3
03:45 Uhr
-4.7
20:35 Uhr
0
00:00 Uhr
0.0
00:00 Uhr
0.0
00:00 Uhr
0.0
00:00 Uhr
13
Zeitraffer
08:11
7.2
03:05 Uhr
2.4
23:20 Uhr

94
23:45 Uhr
82
00:00 Uhr
1021.2
10:45 Uhr

1015.6
23:20 Uhr
1018.8
2,400
13:40 Uhr
0,200
0.432
62
278
11:40 Uhr
0.5
11:40 Uhr

01:02:00
6,9
1
32,2
00:25 Uhr

5
5.2
15:15 Uhr
1.4
23:20 Uhr
-2.0
00:30 Uhr
0
00:00 Uhr
0.0
00:00 Uhr
0.0
00:00 Uhr
0.0
00:00 Uhr
14
Zeitraffer
08:13
10.5
15:00 Uhr
1.8
01:05 Uhr

94
00:00 Uhr
67
14:15 Uhr
1015.6
00:00 Uhr

1009.0
12:30 Uhr
1011.0
0,000
00:00 Uhr
0,000
0.762
70
260
11:55 Uhr
0.6
11:55 Uhr

00:43:00
9,2
2
33,8
12:25 Uhr

5
5.0
15:15 Uhr
1.0
00:35 Uhr
-1.7
09:35 Uhr
0
00:00 Uhr
0.0
00:00 Uhr
0.0
00:00 Uhr
0.0
00:00 Uhr
15
Zeitraffer
08:15
13.7
14:25 Uhr
8.8
21:50 Uhr

71
04:05 Uhr
56
15:20 Uhr
1018.4
23:55 Uhr

1010.8
00:10 Uhr
1013.8
0,000
00:00 Uhr
0,000
1.600
106
345
13:20 Uhr
0.6
13:15 Uhr

02:09:00
10,4
2
32,2
02:20 Uhr

5
6.0
13:15 Uhr
2.1
19:45 Uhr
3.6
02:20 Uhr
0
00:00 Uhr
0.0
00:00 Uhr
0.4
14:15 Uhr
0.0
00:00 Uhr


 
Wetter Information zur Wetteranzeige
Zeitraffer
Tageslänge (hh:mm)
Höchsttemperatur in °C
Uhrzeit
Tiefsttemperatur in °C
Uhrzeit
Luftfeuchte (max., in %)
Uhrzeit
Luftfeuchte (min., in %)
Uhrzeit
Luftdruck (max., in hPa)
Uhrzeit
Luftdruck (min., in hPa)
Uhrzeit
Luftdruck (Ø, in hPa)
Regenrate (max, mm/h)
Uhrzeit
Niederschlag in mm
Verdunstung in mm
Solar in W/m² (Ø)
Solar in W/m² (max.)
UV-Index (max.)
Sonnenscheindauer (hh:mm)
Windrichtung (Ø)
Windstärke (Ø in km/h)
Windstärke (Ø in bft)
Windböe (max., in km/h)
Uhrzeit
Windböe (max., in bft)
Uhrzeit
Taupunkt (max., in °C)
Uhrzeit
Taupunkt (min., in °C)
Uhrzeit
Windchill (min., in °C)
Uhrzeit
Gewitterindex (max.)
Uhrzeit
Waldbrandindex (max.)
Uhrzeit
Graslandfeuerindex (max.)
Uhrzeit
Staubsturm-Index (max.)
Uhrzeit
16
Zeitraffer
08:17
10.3
14:10 Uhr
-0.3
22:45 Uhr

95
23:40 Uhr
63
14:30 Uhr
1029.1
11:25 Uhr

1018.3
00:00 Uhr
1026.5
0,000
00:00 Uhr
0,000
0.991
177
308
12:10 Uhr
0.7
11:35 Uhr

07:09:00
3,5
1
29,0
03:10 Uhr

4
5.7
02:50 Uhr
-1.3
22:45 Uhr
-0.3
22:45 Uhr
0
00:00 Uhr
0.0
00:00 Uhr
0.3
14:55 Uhr
0.0
00:00 Uhr
17
Zeitraffer
08:20
9.7
13:20 Uhr
-0.9
06:35 Uhr

96
04:25 Uhr
67
13:30 Uhr
1027.0
00:00 Uhr

1014.7
21:05 Uhr
1020.2
0,000
00:00 Uhr
0,000
0.889
172
301
12:25 Uhr
0.7
11:50 Uhr

06:41:00
4,6
1
38,6
13:45 Uhr

5
4.3
11:35 Uhr
-1.4
06:30 Uhr
-0.9
06:35 Uhr
0
00:00 Uhr
0.0
00:00 Uhr
0.2
13:30 Uhr
0.0
00:00 Uhr
18
Zeitraffer
08:23
6.9
03:05 Uhr
3.1
23:55 Uhr

91
02:20 Uhr
71
14:30 Uhr
1025.0
23:50 Uhr

1015.6
00:00 Uhr
1021.2
0,000
00:00 Uhr
0,000
0.889
126
284
12:25 Uhr
0.6
11:35 Uhr

04:55:00
6,1
1
32,2
06:50 Uhr

5
5.5
02:50 Uhr
0.8
23:55 Uhr
-0.9
09:05 Uhr
0
00:00 Uhr
0.0
00:00 Uhr
0.1
14:05 Uhr
0.0
00:00 Uhr
19
Zeitraffer
08:25
4.5
14:20 Uhr
2.9
00:25 Uhr

91
05:20 Uhr
85
00:00 Uhr
1042.1
23:55 Uhr

1025.0
00:00 Uhr
1033.3
0,000
00:00 Uhr
0,000
0.279
68
186
14:10 Uhr
0.0
00:00 Uhr

00:17:00
3,8
1
19,3
08:30 Uhr

3
2.3
13:20 Uhr
0.8
00:00 Uhr
-1.9
08:30 Uhr
0
00:00 Uhr
0.0
00:00 Uhr
0.0
00:00 Uhr
0.0
00:00 Uhr
20
Zeitraffer
08:28
3.9
01:20 Uhr
-0.9
08:35 Uhr

96
09:55 Uhr
84
02:25 Uhr
1046.5
11:05 Uhr

1042.0
00:00 Uhr
1044.7
0,000
00:00 Uhr
0,000
0.152
54
124
10:40 Uhr
0.0
00:00 Uhr

00:09:00
3,7
1
17,7
18:55 Uhr

3
2.3
19:15 Uhr
-1.7
08:15 Uhr
-2.6
13:00 Uhr
0
00:00 Uhr
0.0
00:00 Uhr
0.0
00:00 Uhr
0.0
00:00 Uhr
21
Zeitraffer
08:32
5.8
13:10 Uhr
0.9
07:00 Uhr

94
00:10 Uhr
69
12:10 Uhr
1043.5
00:00 Uhr

1033.8
23:50 Uhr
1038.5
0,000
00:00 Uhr
0,000
0.889
180
325
12:15 Uhr
0.8
11:35 Uhr

07:03:00
7,1
2
30,6
12:30 Uhr

5
1.6
14:20 Uhr
-0.5
08:05 Uhr
-3.6
07:55 Uhr
0
00:00 Uhr
0.0
00:00 Uhr
0.9
13:10 Uhr
0.0
00:00 Uhr
22
Zeitraffer
08:34
6.5
13:35 Uhr
2.9
00:00 Uhr

95
06:15 Uhr
78
16:05 Uhr
1034.5
23:35 Uhr

1029.2
14:00 Uhr
1031.3
0,000
00:00 Uhr
0,000
0.356
36
134
12:10 Uhr
0.5
11:55 Uhr

00:00:00
8,5
2
37,0
13:55 Uhr

5
4.7
13:10 Uhr
0.8
00:00 Uhr
-4.9
05:45 Uhr
0
00:00 Uhr
0.0
00:00 Uhr
0.7
14:10 Uhr
0.0
00:00 Uhr
23
Zeitraffer
08:37
5.9
12:20 Uhr
2.1
06:10 Uhr

92
08:05 Uhr
76
12:25 Uhr
1034.6
01:05 Uhr

1026.9
23:55 Uhr
1031.8
0,000
00:00 Uhr
0,000
0.533
99
427
12:10 Uhr
0.9
12:10 Uhr

01:24:00
3,3
1
22,5
12:25 Uhr

4
2.8
12:05 Uhr
0.2
23:30 Uhr
0.9
10:40 Uhr
0
00:00 Uhr
0.0
00:00 Uhr
0.8
12:35 Uhr
0.0
00:00 Uhr
24
Zeitraffer
08:40
4.7
14:30 Uhr
-2.4
08:20 Uhr

95
23:00 Uhr
75
14:10 Uhr
1026.8
00:00 Uhr

1019.7
14:15 Uhr
1022.5
0,000
00:00 Uhr
0,000
0.559
184
321
12:30 Uhr
0.9
12:05 Uhr

06:44:00
4,4
1
25,7
18:10 Uhr

4
0.8
14:00 Uhr
-3.4
08:20 Uhr
-4.3
17:20 Uhr
0
00:00 Uhr
0.0
00:00 Uhr
1.0
15:05 Uhr
0.0
00:00 Uhr
25
Zeitraffer
08:44
2.1
15:36 Uhr
-0.1
00:00 Uhr

96
01:30 Uhr
95
00:00 Uhr
1022.3
11:05 Uhr

1020.3
05:10 Uhr
1021.3
2,400
08:40 Uhr
0,200
0.127
38
88
12:35 Uhr
0.0
00:00 Uhr

00:00:00
5,0
1
19,3
13:20 Uhr

3
1.3
13:05 Uhr
-0.8
00:00 Uhr
-3.8
09:55 Uhr
0
00:00 Uhr
0.0
00:00 Uhr
0.4
03:05 Uhr
0.0
00:00 Uhr
26
Zeitraffer
08:46
1.1
00:00 Uhr
-1.3
06:45 Uhr

96
07:15 Uhr
94
02:55 Uhr
1021.1
00:20 Uhr

1015.7
23:55 Uhr
1018.9
0,000
00:00 Uhr
0,000
0.051
25
48
12:10 Uhr
0.0
00:00 Uhr

00:00:00
4,6
1
17,7
08:50 Uhr

3
0.3
00:00 Uhr
-2.0
06:45 Uhr
-8.0
08:50 Uhr
0
00:00 Uhr
0.0
00:00 Uhr
0.4
00:00 Uhr
0.0
00:00 Uhr
27
Zeitraffer
08:49
8.5
14:20 Uhr
-1.8
05:30 Uhr

97
09:25 Uhr
80
14:15 Uhr
1015.6
00:00 Uhr

1001.9
23:55 Uhr
1010.0
2,400
22:35 Uhr
0,600
0.635
125
298
11:30 Uhr
0.8
11:45 Uhr

04:18:00
4,3
1
22,5
12:45 Uhr

4
5.4
15:00 Uhr
-2.5
05:30 Uhr
-1.8
05:30 Uhr
0
00:00 Uhr
0.0
00:00 Uhr
1.1
14:25 Uhr
0.0
00:00 Uhr
28
Zeitraffer
08:53
8.9
12:40 Uhr
2.7
23:45 Uhr

94
08:45 Uhr
75
13:30 Uhr
1001.8
00:00 Uhr

989.5
14:45 Uhr
993.4
4,800
16:35 Uhr
8,600
0.559
98
414
12:35 Uhr
0.9
12:30 Uhr

01:25:00
10,2
2
45,1
23:25 Uhr

6
6.1
11:45 Uhr
1.1
21:45 Uhr
-7.9
23:25 Uhr
0
00:00 Uhr
0.0
00:00 Uhr
0.0
00:00 Uhr
0.0
00:00 Uhr
29
Zeitraffer
08:56
6.6
14:10 Uhr
2.3
00:30 Uhr

92
00:40 Uhr
70
14:45 Uhr
1008.1
23:50 Uhr

993.0
00:00 Uhr
999.5
2,400
00:05 Uhr
4,000
0.737
54
225
13:35 Uhr
0.6
13:30 Uhr

00:15:00
13,9
3
49,9
14:45 Uhr

6
2.9
19:50 Uhr
1.0
00:30 Uhr
-8.3
00:30 Uhr
0
00:00 Uhr
0.0
00:00 Uhr
0.0
00:00 Uhr
0.0
00:00 Uhr
30
Zeitraffer
09:00
7.8
15:40 Uhr
3.1
07:15 Uhr

93
10:15 Uhr
80
19:20 Uhr
1009.0
02:45 Uhr

998.4
23:55 Uhr
1005.3
2,400
05:30 Uhr
5,400
0.508
32
69
13:45 Uhr
0.0
00:00 Uhr

00:00:00
10,9
2
38,6
02:20 Uhr

5
5.5
14:25 Uhr
1.2
04:15 Uhr
-5.6
07:45 Uhr
0
00:00 Uhr
0.0
00:00 Uhr
0.0
00:00 Uhr
0.0
00:00 Uhr
31
Zeitraffer
09:03
10.8
13:15 Uhr
5.4
00:20 Uhr

94
02:50 Uhr
70
13:20 Uhr
1005.8
17:20 Uhr

995.0
03:25 Uhr
1001.9
0,000
00:00 Uhr
0,000
0.864
77
304
13:15 Uhr
1.0
12:20 Uhr

00:55:00
11,5
2
49,9
09:40 Uhr

6
8.2
05:20 Uhr
4.1
00:00 Uhr
-0.7
01:00 Uhr
0
00:00 Uhr
0.0
00:00 Uhr
0.0
00:00 Uhr
0.0
00:00 Uhr
Stationsstandorte || Wetterblog || Wissenswertes || Downloads || Seitenhistorie || Partner || Impressum / Datenschutz